JBU1053 KJFK-KPBI

Flight info

Callsign JBU1053
Flight time N/A
Altitude 36000
Route WAVEY EMJAY Q167 ZJAAY KALDA Q131 WAALT Y289 DULEE CLMNT2
Aircraft A320/M-SDE3FGHIRWY/LB1

Departure

Time N/A
Airport John F. Kennedy International Airport (KJFK)

Arrival

Time 2026-04-22 00:29
Airport Palm Beach International Airport (KPBI)
Time Latitude Longitude Altitude Speed Heading
2026-04-21 23:46 30.52508 -78.96029 36281 ft 463 kts 204°
2026-04-21 23:47 30.49386 -78.97076 36282 ft 462 kts 204°
2026-04-21 23:47 30.43215 -78.99141 36285 ft 463 kts 203°
2026-04-21 23:48 30.36917 -79.00874 36282 ft 466 kts 200°
2026-04-21 23:48 30.30616 -79.02521 36282 ft 465 kts 200°
2026-04-21 23:49 30.24280 -79.04179 36281 ft 466 kts 200°
2026-04-21 23:49 30.17958 -79.05831 36285 ft 467 kts 200°
2026-04-21 23:50 30.11614 -79.07484 36283 ft 465 kts 200°
2026-04-21 23:50 30.05353 -79.09118 36282 ft 464 kts 200°
2026-04-21 23:51 29.99039 -79.10764 36281 ft 465 kts 200°
2026-04-21 23:51 29.92679 -79.12421 36282 ft 466 kts 200°
2026-04-21 23:52 29.86375 -79.14055 36279 ft 465 kts 200°
2026-04-21 23:52 29.80026 -79.15697 36285 ft 465 kts 200°
2026-04-21 23:53 29.73736 -79.17296 36281 ft 465 kts 200°
2026-04-21 23:53 29.67408 -79.18906 36282 ft 463 kts 200°
2026-04-21 23:54 29.61144 -79.20499 36286 ft 464 kts 200°
2026-04-21 23:54 29.54793 -79.22117 36295 ft 465 kts 200°
2026-04-21 23:55 29.48513 -79.23712 36298 ft 464 kts 200°
2026-04-21 23:55 29.42210 -79.25310 36295 ft 463 kts 200°
2026-04-21 23:56 29.35908 -79.26907 36292 ft 462 kts 200°
2026-04-21 23:56 29.29645 -79.28494 36287 ft 464 kts 200°
2026-04-21 23:57 29.23338 -79.30087 36286 ft 462 kts 200°
2026-04-21 23:57 29.17068 -79.31670 36289 ft 462 kts 200°
2026-04-21 23:58 29.10787 -79.33252 36286 ft 462 kts 200°
2026-04-21 23:58 29.04494 -79.34838 36286 ft 462 kts 200°
2026-04-21 23:59 28.98226 -79.36414 36283 ft 462 kts 200°
2026-04-21 23:59 28.91940 -79.37991 36288 ft 462 kts 200°
2026-04-22 00:00 28.85682 -79.39558 36285 ft 462 kts 200°
2026-04-22 00:00 28.79396 -79.41135 36285 ft 463 kts 200°
2026-04-22 00:01 28.73099 -79.42711 36289 ft 461 kts 199°
2026-04-22 00:01 28.66843 -79.44275 36285 ft 462 kts 200°
2026-04-22 00:02 28.60583 -79.45839 36278 ft 462 kts 199°
2026-04-22 00:02 28.54258 -79.47416 36273 ft 463 kts 200°
2026-04-22 00:03 28.48001 -79.48973 36281 ft 461 kts 200°
2026-04-22 00:03 28.41719 -79.50539 36288 ft 461 kts 200°
2026-04-22 00:04 28.35483 -79.52090 36289 ft 459 kts 200°
2026-04-22 00:04 28.29229 -79.53651 36286 ft 458 kts 200°
2026-04-22 00:05 28.23014 -79.55338 36288 ft 458 kts 201°
2026-04-22 00:05 28.16816 -79.57043 36287 ft 458 kts 201°
2026-04-22 00:06 28.10622 -79.58734 36288 ft 457 kts 201°
2026-04-22 00:06 28.04435 -79.60420 36288 ft 457 kts 201°
2026-04-22 00:07 27.98235 -79.62102 36210 ft 457 kts 201°
2026-04-22 00:07 27.95155 -79.62936 35624 ft 459 kts 200°
2026-04-22 00:07 27.91996 -79.63800 34691 ft 468 kts 200°
2026-04-22 00:07 27.88845 -79.64665 33682 ft 477 kts 199°
2026-04-22 00:08 27.85595 -79.65546 32564 ft 483 kts 198°
2026-04-22 00:08 27.82323 -79.66425 31573 ft 485 kts 198°
2026-04-22 00:08 27.79016 -79.67311 30610 ft 486 kts 198°
2026-04-22 00:08 27.75752 -79.68186 29709 ft 485 kts 198°
2026-04-22 00:09 27.72507 -79.69061 28945 ft 479 kts 198°
2026-04-22 00:09 27.69838 -79.69778 28804 ft 473 kts 198°
2026-04-22 00:09 27.66645 -79.70637 28369 ft 465 kts 199°
2026-04-22 00:09 27.63636 -79.71449 27719 ft 460 kts 199°
2026-04-22 00:10 27.60542 -79.72282 27118 ft 456 kts 199°
2026-04-22 00:10 27.57450 -79.73114 26516 ft 452 kts 199°
2026-04-22 00:10 27.54374 -79.73940 25894 ft 448 kts 199°
2026-04-22 00:10 27.51364 -79.74749 25259 ft 445 kts 199°
2026-04-22 00:11 27.48369 -79.75555 24603 ft 442 kts 199°
2026-04-22 00:11 27.45369 -79.76361 23942 ft 439 kts 199°
2026-04-22 00:11 27.42434 -79.77151 23273 ft 436 kts 199°
2026-04-22 00:11 27.39502 -79.77939 22646 ft 432 kts 198°
2026-04-22 00:12 27.36570 -79.78727 22037 ft 427 kts 198°
2026-04-22 00:12 27.33728 -79.79489 21487 ft 421 kts 198°
2026-04-22 00:12 27.30868 -79.80256 21074 ft 413 kts 198°
2026-04-22 00:12 27.28123 -79.80991 20682 ft 405 kts 198°
2026-04-22 00:13 27.25386 -79.81724 20293 ft 398 kts 198°
2026-04-22 00:13 27.22724 -79.82438 19878 ft 392 kts 198°
2026-04-22 00:13 27.20179 -79.83375 19481 ft 380 kts 208°
2026-04-22 00:13 27.17829 -79.84686 19101 ft 372 kts 212°
2026-04-22 00:14 27.15551 -79.86061 18719 ft 367 kts 213°
2026-04-22 00:14 27.13335 -79.87411 18339 ft 361 kts 212°
2026-04-22 00:14 27.11149 -79.88733 17983 ft 356 kts 212°
2026-04-22 00:14 27.08975 -79.90038 17632 ft 351 kts 212°
2026-04-22 00:15 27.06847 -79.91309 17293 ft 346 kts 212°
2026-04-22 00:15 27.04734 -79.92567 16935 ft 340 kts 212°
2026-04-22 00:15 27.02651 -79.93805 16612 ft 335 kts 211°
2026-04-22 00:15 27.00616 -79.95013 16284 ft 330 kts 211°
2026-04-22 00:16 26.98577 -79.96226 15968 ft 325 kts 211°
2026-04-22 00:16 26.96612 -79.97393 15671 ft 321 kts 211°
2026-04-22 00:16 26.94697 -79.98684 15320 ft 315 kts 218°
2026-04-22 00:16 26.92952 -80.00128 14944 ft 312 kts 221°
2026-04-22 00:17 26.91230 -80.01621 14576 ft 311 kts 221°
2026-04-22 00:17 26.89532 -80.03101 14214 ft 309 kts 221°
2026-04-22 00:17 26.87820 -80.04584 13827 ft 307 kts 220°
2026-04-22 00:17 26.86233 -80.05955 13459 ft 306 kts 220°
2026-04-22 00:18 26.84571 -80.07389 13097 ft 305 kts 220°
2026-04-22 00:18 26.82893 -80.08845 12778 ft 302 kts 220°
2026-04-22 00:18 26.81242 -80.10305 12499 ft 297 kts 224°
2026-04-22 00:18 26.80075 -80.12097 12218 ft 286 kts 253°
2026-04-22 00:19 26.79847 -80.14269 11951 ft 277 kts 274°
2026-04-22 00:19 26.79930 -80.16399 11701 ft 273 kts 274°
2026-04-22 00:19 26.79947 -80.18513 11409 ft 267 kts 271°
2026-04-22 00:19 26.79886 -80.20579 10824 ft 269 kts 270°
2026-04-22 00:20 26.79822 -80.22673 10220 ft 270 kts 270°
2026-04-22 00:20 26.79776 -80.24763 9606 ft 269 kts 270°
2026-04-22 00:20 26.79729 -80.26843 8958 ft 270 kts 270°
2026-04-22 00:20 26.79674 -80.28944 8223 ft 273 kts 270°
2026-04-22 00:21 26.79617 -80.30959 7524 ft 274 kts 270°
2026-04-22 00:21 26.79549 -80.33089 6779 ft 276 kts 270°
2026-04-22 00:21 26.79476 -80.35221 6045 ft 278 kts 267°
2026-04-22 00:21 26.79089 -80.37353 5305 ft 280 kts 253°
2026-04-22 00:22 26.78104 -80.39191 4554 ft 282 kts 220°
2026-04-22 00:22 26.76383 -80.40144 3882 ft 276 kts 187°
2026-04-22 00:22 26.74524 -80.40043 3675 ft 265 kts 160°
2026-04-22 00:22 26.72937 -80.39088 3496 ft 257 kts 134°
2026-04-22 00:23 26.71699 -80.37656 3281 ft 254 kts 128°
2026-04-22 00:23 26.70509 -80.36201 3051 ft 251 kts 128°
2026-04-22 00:23 26.69484 -80.34725 3009 ft 233 kts 110°
2026-04-22 00:23 26.69150 -80.33039 3024 ft 212 kts 90°
2026-04-22 00:24 26.69135 -80.31448 3026 ft 200 kts 88°
2026-04-22 00:24 26.69132 -80.29933 3024 ft 186 kts 89°
2026-04-22 00:24 26.69101 -80.28560 3060 ft 166 kts 89°
2026-04-22 00:24 26.69055 -80.27335 2942 ft 152 kts 89°
2026-04-22 00:25 26.69006 -80.26151 2746 ft 154 kts 89°
2026-04-22 00:25 26.68956 -80.24961 2544 ft 153 kts 89°
2026-04-22 00:25 26.68901 -80.23776 2340 ft 152 kts 89°
2026-04-22 00:25 26.68847 -80.22606 2136 ft 152 kts 89°
2026-04-22 00:26 26.68794 -80.21416 1935 ft 151 kts 89°
2026-04-22 00:26 26.68739 -80.20252 1728 ft 150 kts 88°
2026-04-22 00:26 26.68687 -80.19099 1534 ft 150 kts 89°
2026-04-22 00:26 26.68633 -80.17920 1328 ft 151 kts 89°
2026-04-22 00:27 26.68579 -80.16797 1160 ft 137 kts 88°
2026-04-22 00:27 26.68533 -80.15776 942 ft 125 kts 89°
2026-04-22 00:27 26.68492 -80.14844 772 ft 116 kts 87°
2026-04-22 00:27 26.68454 -80.13947 628 ft 114 kts 87°
2026-04-22 00:28 26.68415 -80.13068 484 ft 114 kts 88°
2026-04-22 00:28 26.68375 -80.12176 344 ft 113 kts 87°
2026-04-22 00:28 26.68337 -80.11298 192 ft 113 kts 88°
2026-04-22 00:28 26.68299 -80.10426 50 ft 111 kts 87°
2026-04-22 00:29 26.68272 -80.09609 18 ft 86 kts 93°
2026-04-22 00:29 26.68245 -80.09100 18 ft 46 kts 94°
2026-04-22 00:29 26.68245 -80.08873 18 ft 18 kts 64°
2026-04-22 00:29 26.68352 -80.08839 18 ft 12 kts
2026-04-22 00:30 26.68390 -80.08837 18 ft 0 kts
2026-04-22 00:32 26.68400 -80.08837 18 ft 6 kts 357°
2026-04-22 00:32 26.68443 -80.08901 18 ft 12 kts 273°
2026-04-22 00:32 26.68446 -80.08978 18 ft 10 kts 274°
2026-04-22 00:32 26.68464 -80.08998 18 ft 0 kts 42°
2026-04-22 00:33 26.68490 -80.08982 18 ft 7 kts 26°
2026-04-22 00:33 26.68512 -80.08968 18 ft 0 kts 28°
2026-04-22 00:33 26.68510 -80.08970 18 ft 0 kts 28°